TURKMENALEM52E/MONACOSAT

Last updated on Sat Oct 05 2024 00:02:39 GMT+0000 (Coordinated Universal Time)

1 40617U 15023A 24277.71090917 .00000109 00000+0 00000+0 0 9993 2 40617 0.0193 201.6540 0002536 4.9885 114.2253 1.00274329 34611
UTC large
Height (km)
Speed (km/s)
/
Latitude / Longitude
Inclination (degrees)
Orbital Period (minutes)
Azimuth
Elevation
Range (km)
Doppler Factor

Next 0 passes for location: London (51.5072 / 0.1276)

Sorry there are no passes over London.